User: anonymous   Login
Location: Unspecified
(0.0000°N, 0.0000°E)
Time: 23:23:54
(UTC+02:00)
Language:

Cosmos 540 Rocket - Orbit

View from above orbital plane
View from above orbital plane
View from above satellite
View from above satellite

Ground track
Ground track

The orbit data is extracted from the following two-line orbital elements,

1  6324U 72104B   17263.62206059 +.00000009 +00000-0 +10455-4 0  9996
2  6324 074.0753 289.1113 0008326 037.1427 323.0305 14.43381344349075
Epoch (UTC): 20 September 2017 14:55:46
Eccentricity: 0.0008326
inclination: 74.0753°
perigee height: 741 km
apogee height: 753 km
right ascension of ascending node: 289.1113°
argument of perigee: 37.1427°
revolutions per day: 14.43381344
mean anomaly at epoch: 323.0305°
orbit number at epoch: 34907

The dashed part of the orbit path shows where the satellite is in the earth's shadow,  

DLR